Temp
20 21 21 21 21 21 21 21 21 21 21 21 21 20 20 20 20 21 21 20 20 20
21 21 21 22 21 21 21 21 21 21 21 21 21 21 20 21 20 20 21 21 21 21
23 22 21 22 22 21 21 21 21 21 22 22 22 21 21 20 21 20 21 21 21 21
23 23 22 22 23 22 21 21 22 22 22 22 22 22 21 21 20 20 20 20 21 21
22 23 23 22 23 23 22 22 22 22 22 21 21 21 21 21 21 20 20 20 20 21
23 23 24 24 24 23 23 23 22 22 22 22 21 21 21 21 22 22 21 21 21 21
24 24 24 25 24 24 24 23 23 23 22 22 22 22 22 22 21 22 22 21 22 21
25 25 24 24 24 25 24 24 23 23 23 22 22 22 22 22 22 22 22 22 22 22
25 24 24 24 24 24 24 24 23 23 23 23 23 23 23 23 23 23 22 22 22 22
26 25 25 25 23 24 24 24 23 23 23 23 23 23 23 23 23 23 23 23 23 23
26 25 25 25 25 24 23 23 24 24 24 24 25 25 24 23 22 22 23 24 24 24
27 26 25 25 25 25 24 23 23 23 23 23 25 25 24 23 23 22 22 22 23 23
28 27 27 26 25 25 25 24 24 23 23 23 23 23 22 22 21 21 22 21 21 21
28 28 27 27 26 25 25 24 23 23 23 22 22 21 20 20 20 21 21 21 22 21
Height
1532 1537 1541 1546 1550 1554 1557 1560 1564 1566 1568 1571 1574 1576 1578 1579 1581 1583 1585 1587 1588 1590
1525 1529 1534 1540 1545 1550 1554 1556 1560 1563 1565 1567 1570 1572 1574 1575 1577 1579 1581 1583 1585 1587
1517 1524 1528 1535 1540 1545 1549 1553 1555 1557 1559 1561 1564 1567 1569 1571 1573 1575 1577 1579 1582 1584
1513 1518 1523 1528 1534 1539 1543 1547 1550 1552 1554 1556 1559 1562 1565 1567 1570 1572 1574 1576 1578 1580
1507 1511 1517 1521 1526 1532 1535 1540 1544 1546 1549 1552 1555 1559 1561 1563 1565 1567 1569 1571 1573 1574
1500 1504 1508 1513 1519 1523 1528 1533 1538 1542 1543 1546 1548 1551 1553 1556 1558 1560 1562 1564 1565 1568
1492 1497 1501 1506 1512 1516 1521 1526 1530 1535 1536 1538 1541 1544 1547 1550 1552 1555 1556 1557 1559 1561
1485 1491 1495 1499 1503 1508 1513 1516 1522 1526 1530 1532 1533 1535 1538 1541 1544 1545 1548 1550 1550 1551
1478 1483 1487 1492 1496 1500 1503 1508 1513 1515 1519 1522 1524 1526 1529 1532 1535 1538 1540 1541 1543 1544
1470 1474 1479 1484 1488 1491 1494 1499 1501 1505 1508 1510 1513 1516 1520 1523 1527 1530 1531 1533 1534 1535
1462 1466 1472 1476 1478 1482 1487 1490 1492 1495 1497 1500 1501 1506 1511 1516 1519 1521 1521 1522 1524 1526
1456 1460 1464 1467 1471 1475 1480 1482 1484 1487 1489 1490 1491 1496 1502 1509 1512 1513 1511 1513 1515 1516
1453 1456 1457 1459 1463 1468 1471 1474 1478 1479 1480 1482 1483 1489 1494 1500 1504 1504 1502 1506 1504 1505
1448 1449 1452 1455 1458 1460 1463 1467 1469 1471 1473 1475 1476 1480 1485 1489 1492 1490 1495 1495 1494 1494
Wind_Speed
40 35 33 30 30 25 28 26 21 20 19 13 16 18 20 18 16 16 16 18 17 17
42 42 38 33 32 28 26 25 22 21 21 20 17 17 19 22 20 19 17 16 19 18
42 44 42 37 32 32 27 29 25 22 25 24 21 20 19 24 24 22 21 18 17 20
41 43 43 42 36 36 33 29 32 30 23 28 27 24 21 24 26 26 24 22 21 19
40 40 42 43 40 36 38 37 31 33 34 25 28 27 23 22 26 27 28 28 26 24
41 41 41 41 41 40 40 40 39 34 32 35 31 30 28 26 25 26 29 30 30 28
42 41 42 41 41 42 42 42 41 41 41 39 38 36 33 32 30 27 28 32 33 33
43 41 40 42 43 43 44 45 45 44 45 45 46 44 43 40 38 36 33 33 35 37
40 41 41 42 42 42 44 44 46 47 48 48 49 49 47 44 42 40 39 39 38 38
43 41 40 38 41 43 44 43 44 45 45 48 49 49 49 47 45 43 42 42 41 40
48 46 43 42 43 42 43 44 46 46 46 46 47 46 47 48 48 47 47 46 45 44
48 48 47 47 46 44 44 44 46 47 48 50 50 48 46 45 48 50 53 52 51 51
41 44 45 46 47 47 47 46 45 47 48 49 51 50 49 46 46 50 54 55 56 56
41 42 43 43 44 46 47 48 48 47 47 47 47 46 46 44 45 50 51 54 57 57
Wind_Direction
221 221 222 220 216 220 226 233 234 235 235 237 224 221 221 217 232 219 210 205 204 199
219 224 225 222 218 217 225 232 236 236 236 236 230 224 226 227 225 231 225 219 213 206
221 221 227 228 221 218 219 223 228 239 240 238 240 236 235 232 231 230 236 228 220 217
227 224 225 231 227 222 220 221 221 230 236 238 238 238 243 237 232 236 239 242 241 233
231 230 227 228 231 226 225 224 223 226 235 238 238 240 246 248 238 234 237 241 246 246
229 231 232 229 229 231 228 229 226 225 233 237 240 241 246 250 246 241 241 240 243 247
232 231 233 234 232 231 233 232 232 230 234 239 243 246 247 250 251 247 244 247 248 246
234 235 235 236 237 237 236 238 238 239 238 240 242 245 247 249 251 252 250 247 248 251
235 235 236 238 237 240 242 241 243 243 243 244 245 248 251 251 251 252 253 253 252 253
232 234 236 239 239 241 242 245 244 245 246 247 248 249 251 253 253 253 254 256 257 256
231 235 236 238 239 241 242 244 247 248 248 249 250 249 249 251 253 254 257 258 258 260
233 236 238 239 241 243 243 245 247 250 252 253 254 253 252 249 249 252 257 258 260 261
234 237 240 245 245 244 246 249 251 253 255 258 260 260 257 254 251 252 255 255 259 260
235 239 243 246 247 247 246 247 250 253 256 259 261 260 258 258 255 256 256 257 259 260